• In Germany
  • List of Countries
  • For 7 days
  • Water Temperature
  • Satellite Maps
  • Weather Map
  • Weather Widgets
  • user-avatar
    Login

    Hourly Weather Kalat

    Today, 24 November, Friday

    Time Temperature Precipitation Wind Pressure Humidity
    00:00 -10°C° 0 mm 3 mps 471 mmHg 48%
    01:00 -10°C° 0 mm 3 mps 471 mmHg 48%
    02:00 -10°C° 0 mm 3 mps 471 mmHg 49%
    03:00 -10°C° 0 mm 3 mps 471 mmHg 49%
    04:00 -10°C° 0 mm 3 mps 471 mmHg 49%
    05:00 -10°C° 0 mm 3 mps 470 mmHg 48%
    06:00 -10°C° 0 mm 3 mps 471 mmHg 49%
    07:00 -9°C° 0 mm 3 mps 471 mmHg 50%
    08:00 -9°C° 0 mm 3 mps 471 mmHg 50%
    09:00 -7°C° 0 mm 3 mps 473 mmHg 49%
    10:00 -6°C° 0 mm 3 mps 474 mmHg 47%
    11:00 -2°C° 0 mm 3 mps 475 mmHg 46%
    12:00 -2°C° 0 mm 3 mps 475 mmHg 49%
    13:00 -2°C° 0 mm 3 mps 475 mmHg 51%
    14:00 -2°C° 0 mm 3 mps 475 mmHg 53%
    15:00 -4°C° 0.2 mm 3 mps 474 mmHg 61%
    16:00 -6°C° 0.2 mm 3 mps 474 mmHg 68%
    17:00 -6°C° 0.2 mm 2 mps 473 mmHg 76%
    18:00 -6°C° 0.3 mm 2 mps 473 mmHg 77%
    19:00 -7°C° 0.3 mm 3 mps 474 mmHg 79%
    20:00 -8°C° 0.3 mm 3 mps 474 mmHg 81%
    21:00 -8°C° 0.2 mm 3 mps 473 mmHg 80%
    22:00 -8°C° 0.2 mm 3 mps 473 mmHg 80%
    23:00 -8°C° 0.2 mm 3 mps 473 mmHg 80%

    Tomorrow, 25 November, Saturday

    Time Temperature Precipitation Wind Pressure Humidity
    00:00 -9°C° 0 mm 3 mps 473 mmHg 79%
    01:00 -9°C° 0 mm 3 mps 472 mmHg 79%
    02:00 -10°C° 0 mm 3 mps 472 mmHg 79%
    03:00 -10°C° 0 mm 3 mps 471 mmHg 79%
    04:00 -12°C° 0 mm 3 mps 471 mmHg 78%
    05:00 -12°C° 0 mm 3 mps 470 mmHg 78%
    06:00 -12°C° 0 mm 3 mps 470 mmHg 77%
    07:00 -12°C° 0 mm 3 mps 471 mmHg 76%
    08:00 -12°C° 0 mm 3 mps 471 mmHg 75%
    09:00 -9°C° 0 mm 3 mps 472 mmHg 72%
    10:00 -8°C° 0 mm 4 mps 473 mmHg 68%
    11:00 -7°C° 0 mm 4 mps 474 mmHg 65%
    12:00 -7°C° 0.1 mm 4 mps 474 mmHg 66%
    13:00 -6°C° 0.1 mm 3 mps 474 mmHg 67%
    14:00 -6°C° 0.1 mm 3 mps 473 mmHg 68%
    15:00 -6°C° 0.3 mm 3 mps 473 mmHg 73%
    16:00 -6°C° 0.3 mm 2 mps 473 mmHg 78%
    17:00 -7°C° 0.3 mm 2 mps 473 mmHg 83%
    18:00 -7°C° 0.4 mm 2 mps 473 mmHg 84%
    19:00 -7°C° 0.4 mm 2 mps 473 mmHg 85%
    20:00 -8°C° 0.4 mm 2 mps 473 mmHg 87%
    21:00 -8°C° 0.2 mm 2 mps 473 mmHg 86%
    22:00 -8°C° 0.2 mm 2 mps 473 mmHg 86%
    23:00 -9°C° 0.2 mm 2 mps 473 mmHg 85%

    Day after tomorrow, 26 November, Sunday

    Time Temperature Precipitation Wind Pressure Humidity
    00:00 -9°C° 0 mm 2 mps 473 mmHg 84%
    01:00 -10°C° 0 mm 2 mps 472 mmHg 84%
    02:00 -12°C° 0 mm 2 mps 472 mmHg 83%
    03:00 -12°C° 0 mm 2 mps 471 mmHg 82%
    04:00 -13°C° 0 mm 2 mps 471 mmHg 81%
    05:00 -13°C° 0 mm 2 mps 471 mmHg 81%
    06:00 -14°C° 0 mm 3 mps 471 mmHg 79%
    07:00 -14°C° 0 mm 3 mps 471 mmHg 78%
    08:00 -14°C° 0 mm 3 mps 472 mmHg 77%
    09:00 -12°C° 0 mm 3 mps 473 mmHg 73%
    10:00 -9°C° 0 mm 3 mps 474 mmHg 68%
    11:00 -7°C° 0 mm 3 mps 476 mmHg 64%
    12:00 -7°C° 0 mm 3 mps 475 mmHg 63%
    13:00 -7°C° 0 mm 3 mps 475 mmHg 63%
    14:00 -7°C° 0 mm 3 mps 475 mmHg 62%
    15:00 -7°C° 0 mm 2 mps 474 mmHg 67%
    16:00 -8°C° 0 mm 2 mps 473 mmHg 73%
    17:00 -10°C° 0 mm 2 mps 472 mmHg 78%
    18:00 -10°C° 0 mm 2 mps 472 mmHg 80%
    19:00 -12°C° 0 mm 2 mps 472 mmHg 81%
    20:00 -12°C° 0 mm 2 mps 472 mmHg 82%
    21:00 -13°C° 0 mm 2 mps 472 mmHg 80%
    22:00 -13°C° 0 mm 2 mps 472 mmHg 78%
    23:00 -14°C° 0 mm 2 mps 471 mmHg 75%

    27 November, Monday

    Time Temperature Precipitation Wind Pressure Humidity
    00:00 -14°C° 0 mm 2 mps 471 mmHg 71%
    01:00 -14°C° 0 mm 2 mps 471 mmHg 67%
    02:00 -14°C° 0 mm 2 mps 470 mmHg 63%
    03:00 -15°C° 0 mm 2 mps 470 mmHg 59%
    04:00 -15°C° 0 mm 2 mps 470 mmHg 55%
    05:00 -15°C° 0 mm 2 mps 469 mmHg 51%
    06:00 -15°C° 0 mm 2 mps 469 mmHg 49%
    07:00 -14°C° 0 mm 2 mps 470 mmHg 46%
    08:00 -14°C° 0 mm 2 mps 470 mmHg 43%
    09:00 -12°C° 0 mm 2 mps 471 mmHg 39%
    10:00 -10°C° 0 mm 2 mps 472 mmHg 36%
    11:00 -7°C° 0 mm 1 mps 473 mmHg 33%
    12:00 -7°C° 0 mm 1 mps 473 mmHg 34%
    13:00 -7°C° 0 mm 2 mps 473 mmHg 35%
    14:00 -7°C° 0 mm 2 mps 473 mmHg 36%
    15:00 -8°C° 0 mm 2 mps 472 mmHg 40%
    16:00 -9°C° 0 mm 2 mps 471 mmHg 45%
    17:00 -12°C° 0 mm 2 mps 470 mmHg 50%
    18:00 -12°C° 0 mm 2 mps 469 mmHg 50%
    19:00 -13°C° 0 mm 2 mps 469 mmHg 49%
    20:00 -14°C° 0 mm 2 mps 469 mmHg 49%
    21:00 -14°C° 0 mm 2 mps 469 mmHg 49%
    22:00 -14°C° 0 mm 2 mps 469 mmHg 48%
    23:00 -14°C° 0 mm 2 mps 469 mmHg 48%

    28 November, Tuesday

    Time Temperature Precipitation Wind Pressure Humidity
    00:00 -14°C° 0 mm 2 mps 469 mmHg 48%
    01:00 -14°C° 0 mm 2 mps 468 mmHg 47%
    02:00 -14°C° 0 mm 2 mps 468 mmHg 47%
    03:00 -14°C° 0 mm 2 mps 468 mmHg 48%
    04:00 -14°C° 0 mm 2 mps 468 mmHg 48%
    05:00 -14°C° 0 mm 2 mps 468 mmHg 48%
    06:00 -14°C° 0 mm 2 mps 468 mmHg 48%
    07:00 -13°C° 0 mm 2 mps 469 mmHg 48%
    08:00 -13°C° 0 mm 2 mps 469 mmHg 48%
    09:00 -10°C° 0 mm 2 mps 470 mmHg 44%
    10:00 -8°C° 0 mm 1 mps 471 mmHg 40%
    11:00 -6°C° 0 mm 0 mps 472 mmHg 36%
    12:00 -6°C° 0 mm 1 mps 472 mmHg 39%
    13:00 -4°C° 0 mm 1 mps 472 mmHg 43%
    14:00 -4°C° 0 mm 1 mps 472 mmHg 46%
    15:00 -6°C° 0 mm 1 mps 471 mmHg 51%
    16:00 -7°C° 0 mm 1 mps 471 mmHg 56%
    17:00 -8°C° 0 mm 1 mps 470 mmHg 61%
    18:00 -9°C° 0 mm 1 mps 470 mmHg 64%
    19:00 -9°C° 0 mm 1 mps 470 mmHg 66%
    20:00 -9°C° 0 mm 1 mps 470 mmHg 69%
    21:00 -9°C° 0 mm 1 mps 470 mmHg 70%
    22:00 -10°C° 0 mm 1 mps 470 mmHg 71%
    23:00 -10°C° 0 mm 1 mps 470 mmHg 72%

    29 November, Wednesday

    Time Temperature Precipitation Wind Pressure Humidity
    00:00 -10°C° 0 mm 1 mps 470 mmHg 72%
    01:00 -10°C° 0 mm 1 mps 470 mmHg 73%
    02:00 -10°C° 0 mm 1 mps 470 mmHg 73%
    03:00 -10°C° 0 mm 1 mps 470 mmHg 73%
    04:00 -10°C° 0 mm 1 mps 470 mmHg 74%
    05:00 -11°C° 0 mm 1 mps 470 mmHg 74%
    06:00 -11°C° 0 mm 1 mps 470 mmHg 73%
    07:00 -11°C° 0 mm 1 mps 470 mmHg 72%
    08:00 -11°C° 0 mm 1 mps 470 mmHg 71%
    09:00 -10°C° 0 mm 1 mps 471 mmHg 67%
    10:00 -8°C° 0 mm 1 mps 472 mmHg 62%
    11:00 -7°C° 0 mm 1 mps 473 mmHg 57%
    12:00 -6°C° 0 mm 1 mps 473 mmHg 57%
    13:00 -6°C° 0 mm 1 mps 473 mmHg 56%
    14:00 -7°C° 0 mm 2 mps 473 mmHg 56%
    15:00 -7°C° 0 mm 1 mps 472 mmHg 60%
    16:00 -8°C° 0 mm 1 mps 471 mmHg 63%
    17:00 -10°C° 0 mm 1 mps 470 mmHg 67%
    18:00 -10°C° 0 mm 1 mps 470 mmHg 68%
    19:00 -11°C° 0 mm 1 mps 470 mmHg 68%
    20:00 -11°C° 0 mm 1 mps 470 mmHg 69%
    21:00 -11°C° 0 mm 1 mps 470 mmHg 68%
    22:00 -11°C° 0 mm 1 mps 470 mmHg 68%
    23:00 -14°C° 0 mm 2 mps 470 mmHg 67%
    Show more